Home > Weather > Hannover > Past weeks

Flag for Germany Weather for the Past 2 Weeks in Hannover, Lower Saxony, Germany

Now
37 °F

Passing clouds.


Feels Like: 29 °F
Forecast: 38 / 42 °F
Wind: 14 mph from West

Location: Hannover

Current Time: Feb 10, 2016 at 3:01:16 AM

Latest Report: Feb 10, 2016 at 2:20 AM


Visibility: N/A

Pressure: 29.15 "Hg

Humidity: 93%

Dew point: 36 °F

Location of HannoverLocation

Historic Weather in Hannover — Graph

°F

Hannover Temperature Yesterday

Maximum temperature yesterday: 48 °F (at 7:20 PM)
Minimum temperature yesterday: 34 °F (at 11:20 PM)
Average temperature yesterday: 44 °F

High & Low Weather Summary for the Past Weeks

 TemperatureHumidityPressure
High55 °F (Feb 7, 11:50 AM)100% (Jan 30, 7:50 PM)30.27 "Hg (Jan 30, 7:50 PM)
Low34 °F (Feb 9, 11:20 PM)59% (Feb 7, 11:50 AM)28.80 "Hg (Feb 9, 6:50 PM)
Average45 °F83%29.82 "Hg
* Reported Jan 26 1:20 AM — Feb 10 1:20 AM, Hannover, Weather by CustomWeather, © 2016

Note: Actual official high and low records may vary slightly from our data, if they occured in-between our weather recording intervals... More about our weather records

Advertising

Hannover Weather History for the Previous 24 Hours

 ConditionsComfort  
Time TempWeatherWind HumidityBarometerVisibility
1:20 AM
Wed, Feb 10
37 °FPassing clouds.16 mph93%29.12 "HgN/A
12:20 AM36 °FLight rain. Passing clouds.16 mph100%29.09 "HgN/A
11:50 PM
Tue, Feb 9
36 °FLight rain. Passing clouds.21 mph100%29.06 "HgN/A
11:20 PM34 °FLight rain. Fog.24 mph100%29.00 "Hg2 mi
10:20 PM36 °FLight rain. Passing clouds.25 mph93%28.88 "HgN/A
9:50 PM37 °FSprinkles. Passing clouds.28 mph87%28.85 "HgN/A
9:20 PM43 °FPassing clouds.28 mph81%28.82 "HgN/A
8:50 PM46 °FPassing clouds.23 mph87%28.80 "HgN/A
8:20 PM48 °FPassing clouds.20 mph76%28.80 "HgN/A
7:50 PM48 °FPassing clouds.16 mph76%28.82 "HgN/A
7:20 PM48 °FPassing clouds.20 mph82%28.82 "HgN/A
6:50 PM46 °FPartly cloudy.20 mph87%28.80 "HgN/A
6:20 PM43 °FPassing clouds.13 mph93%28.85 "HgN/A
5:50 PM43 °FPassing clouds.14 mph93%28.85 "HgN/A
5:20 PM43 °FPartly sunny.15 mph93%28.88 "Hg6 mi
4:50 PM43 °FLight rain. Partly sunny.16 mph93%28.94 "Hg6 mi
4:20 PM41 °FLight rain. Partly sunny.15 mph100%28.97 "Hg6 mi
3:20 PM45 °FLight rain. Partly sunny.17 mph81%29.06 "HgN/A
2:20 PM46 °FOvercast.15 mph71%29.12 "HgN/A
1:50 PM46 °FOvercast.12 mph71%29.15 "HgN/A
1:20 PM46 °FOvercast.12 mph71%29.18 "HgN/A
12:50 PM46 °FBroken clouds.12 mph71%29.21 "HgN/A
12:20 PM46 °FBroken clouds.12 mph71%29.24 "HgN/A
11:20 AM46 °FBroken clouds.14 mph71%29.30 "HgN/A
10:50 AM45 °FBroken clouds.16 mph76%29.30 "HgN/A
10:20 AM45 °FBroken clouds.18 mph76%29.33 "HgN/A
9:50 AM45 °FBroken clouds.17 mph76%29.33 "HgN/A
9:20 AM43 °FBroken clouds.13 mph81%29.36 "HgN/A
8:50 AM45 °FSprinkles. Partly sunny.17 mph71%29.36 "HgN/A
8:20 AM45 °FPartly sunny.15 mph71%29.36 "HgN/A
7:50 AM45 °FPartly sunny.14 mph71%29.36 "HgN/A
7:20 AM45 °FPartly cloudy.18 mph71%29.36 "HgN/A
6:50 AM45 °FPartly cloudy.16 mph71%29.36 "HgN/A
6:20 AM43 °FSprinkles. Passing clouds.14 mph81%29.36 "HgN/A
5:50 AM45 °FPassing clouds.22 mph71%29.36 "HgN/A
5:20 AM45 °FClear.24 mph66%29.33 "Hg10 mi
4:20 AM46 °FLight rain. Passing clouds.23 mph71%29.33 "HgN/A
3:50 AM46 °FLight rain. Passing clouds.26 mph71%29.33 "HgN/A
3:20 AM46 °FLight rain. Passing clouds.24 mph71%29.30 "HgN/A
Weather by CustomWeather, © 2016

See weather overviewHow to use our weather pages